Location: Sternwarte ZA, Rosenfeld-Brittheim
(48.2889°N, 8.6789°E)
Time: 21:31:55
(UTC+02:00)

ISS - Pass Details

Date: 28 May 2017
Orbit: 402 x 409 km, 51.6° (Epoch: 25 May)

Event Time Altitude Azimuth Distance (km) Brightness Sun altitude
Rises 23:11:57 0° 269° (W) 2,332 0.5 -14.2°
Reaches altitude 10° 23:14:05 10° 275° (W) 1,471 -0.5 -14.4°
Maximum altitude 23:17:17 48° 352° (N) 542 -2.8 -14.7°
Drops below altitude 10° 23:20:30 10° 68° (ENE) 1,470 -1.1 -15.0°
Sets 23:22:38 0° 75° (ENE) 2,329 -0.1 -15.1°
